Location: Proctor
(47.8934°N, 114.3048°W)
Time: 18:29:00
(UTC+00:00)

Transit 4A - Pass Details

Date: 17 May 2025
Orbit: 866 x 975 km, 66.8° (Epoch: 13 June)

Event Time Altitude Azimuth Distance (km) Brightness Sun altitude
Rises 05:50:13 0° 281° (W) 3,655 11.5 -18.8°
Reaches altitude 10° 05:53:53 10° 302° (WNW) 2,696 11.1 -19.1°
Maximum altitude 05:57:45 17° 340° (NNW) 2,234 10.9 -19.4°
Drops below altitude 10° 06:01:35 10° 19° (NNE) 2,657 10.9 -19.6°
Sets 06:05:11 0° 39° (NE) 3,579 11.3 -19.8°
